Location: Shell Point
(30.0571°N, 84.2896°W)
Time: 21:43:41
(UTC-04:00)

Daily predictions for brighter satellites

Satellite Brightness Start Highest point End
(mag) Time Altitude Azimuth Time Altitude Azimuth Time Altitude Azimuth
Cosmos 192 4.4 19:43:04 10° S 19:47:53 56° ESE 19:52:45 10° NNE
Aureole 2 Rocket 3.4 19:52:11 10° SSW 19:56:32 69° WNW 20:00:53 10° N
ISS -2.2 19:54:50 10° S 19:57:35 26° SE 20:00:22 10° ENE
OAO 3 Rocket 3.8 19:53:14 10° W 19:57:50 49° N 20:02:30 10° ENE
Cosmos 1484 Rocket 2.7 19:54:38 10° SSE 19:58:25 85° ENE 20:02:18 10° N
SAR-Lupe-1 4.5 19:56:06 10° SE 19:59:26 40° ENE 20:02:47 10° N
USA 215 3.3 19:53:10 10° NE 19:59:43 86° SE 20:06:15 10° SW
SL-19 R/B 4.3 19:54:19 10° SSE 19:59:49 63° ENE 20:05:32 10° N
Cosmos 1624 Rocket 4.0 19:54:51 10° N 20:00:00 61° ENE 20:05:07 10° SSE
ASTRO E2 2.8 20:00:35 10° W 20:04:37 71° N 20:08:09 13° E
ASC 2 Rocket 4.0 20:01:48 10° WSW 20:06:03 36° S 20:09:36 11° ESE
ALOS 3.9 20:04:00 11° E 20:06:19 15° ENE 20:08:56 10° NE
Cosmos 1766 Rocket 4.4 20:03:21 10° NNE 20:07:06 28° E 20:10:48 10° SE
Cosmos 2034 Rocket 4.2 20:01:38 10° SSE 20:07:32 47° E 20:13:32 10° NNE
Cosmos 1464 Rocket 4.0 20:03:08 10° S 20:09:21 70° E 20:15:31 10° N
ATLAS 5 CENTAUR R/B 2.0 20:06:37 10° SW 20:11:16 73° WNW 20:16:15 10° NNE
TIMED 4.4 20:07:53 10° NNW 20:12:15 78° ENE 20:16:36 10° SSE
BREEZE-M TANK 3.2 20:03:39 10° NW 20:12:39 58° NNE 20:15:14 16° ESE
Helios 1B rocket 2.6 20:11:12 10° NNE 20:15:11 49° E 20:19:10 10° S
Meteor 1-29 3.5 20:12:24 10° NNE 20:15:40 36° E 20:18:53 10° SSE
Atlas Centaur 2 3.2 20:07:52 10° W 20:16:27 73° SSW 20:23:26 15° ESE
Cosmos 1076 Rocket 3.7 20:14:15 10° N 20:18:27 48° E 20:22:38 10° SSE
Cosmos 1766 3.9 20:14:39 10° SSW 20:18:31 59° W 20:22:27 10° N
Cosmos-2242 3.3 20:14:25 10° SSE 20:18:32 44° E 20:22:42 10° NNE
SeaSat 1 3.5 20:16:46 10° ENE 20:20:34 22° ESE 20:24:21 10° SSE
H-II Stage 2 4.0 20:22:39 10° SW 20:23:49 14° S 20:24:45 12° SSE
BREEZE-M DEB (TANK) 4.4 20:21:54 10° NW 20:26:07 86° NE 20:42:35 10° SE
SL-16 R/B 3.8 20:22:09 10° SW 20:27:24 38° WNW 20:32:41 10° N
FREGAT/IRIS 2.5 20:25:13 10° SSE 20:28:18 83° E 20:31:23 10° N
SEDSat Delta rocket 4.1 20:22:33 10° W 20:29:15 79° N 20:34:02 21° E
Cosmos 1452 Rocket 3.9 20:24:29 10° N 20:29:27 41° ENE 20:33:23 15° SE
Cosmos 1842 Rocket 4.3 20:30:03 10° SSE 20:33:47 29° E 20:37:32 10° NNE
ATLAS CENTAUR R/B 2.4 20:32:10 10° NW 20:35:59 43° WSW 20:39:32 10° S
SL-8 R/B 4.1 20:33:05 10° WSW 20:37:49 62° NW 20:42:04 13° NE
Cosmos 1544 3.0 20:35:21 10° S 20:39:00 60° E 20:42:42 10° NNE
METEOR-M 4.0 20:33:51 10° SSE 20:39:11 79° ENE 20:44:32 10° N
Cosmos 468 4.5 20:34:59 10° SSW 20:40:15 89° WNW 20:45:31 10° NNE
Cosmos 1408 Rocket 3.4 20:36:34 10° N 20:40:55 82° E 20:45:12 10° S
Gbstr 26 Del rocket 3.1 20:38:57 10° SSW 20:43:04 63° SE 20:45:51 24° NE
Cosmos 1953 2.6 20:40:07 10° SSW 20:44:05 68° W 20:48:03 10° N
H-2A R/B 4.2 20:50:10 23° NE 20:50:10 23° NE 20:52:09 10° NNE
Cosmos 1805 3.9 20:45:01 10° SSW 20:48:51 58° W 20:52:45 10° N
FENGYUN 3A 3.9 20:47:47 26° SE 20:50:30 47° ENE 20:55:38 10° N
Resurs 1-3 3.4 20:48:38 15° SSE 20:52:10 73° ENE 20:56:32 10° N
Resurs 01 Rocket 1.7 20:48:34 10° S 20:53:02 81° W 20:57:30 10° NNW
ASTEX 1 3.2 20:56:27 10° NNE 21:01:21 69° E 21:06:12 10° S
Spot 2 Rocket 3.8 20:56:37 10° S 21:01:38 68° WSW 21:06:39 10° NNW
CENTAUR R/B 2.3 20:56:14 10° SSW 21:02:00 70° ESE 21:08:26 10° NNE
Cosmos 1269 Rocket 4.2 20:57:27 10° SSW 21:02:42 72° WNW 21:07:59 10° N
Helios 1A 3.3 20:59:46 10° S 21:03:54 66° W 21:08:05 10° NNW
Cosmos 1048 Rocket 4.0 20:59:16 10° SSW 21:04:35 82° WNW 21:09:53 10° NNE
NOSS 3-3 (A) 4.5 20:58:35 10° NNW 21:06:17 89° ENE 21:11:51 22° SSE
Delta 168 4.0 21:01:28 10° WSW 21:06:23 56° S 21:08:13 42° SE
NOSS 3-3 (C) 4.5 20:58:41 10° NNW 21:06:23 88° ENE 21:11:53 23° SSE
Cosmos 1743 Rocket 3.4 21:04:54 10° N 21:09:20 78° E 21:09:33 75° ESE
Cosmos 1943 3.0 21:04:56 10° S 21:10:31 69° ESE 21:16:07 10° NNE
Centaur D-1A AC-32 4.1 21:09:56 10° SW 21:12:09 16° SSW 21:12:24 16° S
Cosmos 2369 Rocket 3.6 21:11:24 10° N 21:14:17 23° NNE 21:14:17 23° NNE
Cosmos 1174 4.1 21:14:24 10° SSW 21:19:46 84° WNW 21:20:08 75° N
GPS 2-04 Rocket1 3.8 21:17:05 10° W 21:19:40 38° NW 21:19:40 38° NW
Nadezhda 4 Rocket 4.0 21:17:59 10° N 21:24:14 77° W 21:29:51 13° S
Cosmos 2142 Rocket 4.4 21:23:37 10° S 21:29:57 81° E 21:36:21 10° N
Cosmos 1092 Rocket 3.8 21:25:04 10° N 21:31:16 86° E 21:32:27 61° SSE
ISS -0.5 21:31:37 10° W 21:33:16 18° WNW 21:33:16 18° WNW
Cosmos 1634 Rocket 4.0 21:33:19 10° S 21:39:34 78° W 21:45:49 10° N
OAO 3 Rocket 4.2 21:37:07 10° WNW 21:40:37 41° NW 21:40:37 41° NW
ALOS 3.4 21:42:33 37° SW 21:43:21 40° W 21:47:45 10° NNW
BREEZE-M DEB (TANK) 4.0 21:39:06 10° NW 21:51:42 49° WSW 21:52:19 47° SW
SeaSat 1 3.9 21:53:36 10° N 21:58:04 35° WNW 22:02:30 10° SW
Atlas Centaur 2 3.9 21:58:29 10° W 22:05:53 35° SSW 22:06:05 35° SSW
